Powrót do katalogu

ATS 6

AktywnyNaukaGEO
NORAD 7318·PAYLOAD·🇺🇸 United States

Wystrzelony May 30, 1974 z Cape Canaveral Space Force Station

Loading…

TLE

ŚwieżeSource: Space-Track

Epoka: Sep 14, 2026, 13:12 UTC

1 07318U 74039A   26257.55061745 -.00000164  00000-0  00000-0 0  9999
2 07318   1.7425 243.3097 0033217 349.9525 194.7696  1.01979890122912

Śledź ATS 6 w czasie rzeczywistym z AllMySat

Download on the App Store